FW8091 Weather Reports


time (UTC)temp
C
wind
direction
speed
KPH
gust
KPH
rain 1hr
cm
rain 24hr
cm
rain mn
cm
humidity
%
barometer
mb
20260507013034 17 52 9.7 22.5 0.00 0.00 0.00 61 1013.8
20260507011537 17 50 11.3 20.9 0.00 0.00 0.00 62 1013.7
20260507010056 17 57 9.7 20.9 0.00 0.00 0.00 62 1013.7
20260507004554 17 25 11.3 22.5 0.00 0.00 0.00 62 1013.7
20260507003050 17 44 11.3 17.7 0.00 0.00 0.00 61 1013.8
20260507001547 17 43 9.7 19.3 0.00 0.00 0.00 61 1013.7
20260507000046 17 33 12.9 19.3 0.00 0.00 0.00 60 1013.6
20260506234552 18 58 4.8 17.7 0.00 0.00 0.00 60 1014.0
20260506233041 17 40 6.4 16.1 0.00 0.00 0.00 60 1014.1
20260506231540 17 40 6.4 16.1 0.00 0.00 0.00 60 1014.2
20260506230039 17 32 6.4 14.5 0.00 0.00 0.00 60 1014.3
20260506224544 18 47 4.8 12.9 0.00 0.00 0.00 60 1014.4
20260506223037 18 50 8.0 16.1 0.00 0.00 0.00 60 1014.2
20260506221536 18 64 11.3 17.7 0.00 0.00 0.00 60 1014.0
20260506220037 18 62 9.7 19.3 0.00 0.00 0.00 60 1014.3
20260506214535 18 47 6.4 17.7 0.00 0.00 0.00 60 1014.5
20260506213033 18 67 9.7 17.7 0.00 0.00 0.00 60 1014.9
20260506211531 18 73 8.0 17.7 0.00 0.00 0.00 60 1014.8
20260506210035 18 73 11.3 17.7 0.00 0.00 0.00 60 1014.8
20260506204545 18 96 12.9 17.7 0.00 0.00 0.00 60 1014.8
20260506203030 18 120 11.3 17.7 0.00 0.00 0.00 61 1014.5
20260506201530 18 82 6.4 17.7 0.00 0.00 0.00 61 1014.3
20260506200024 18 94 9.7 19.3 0.00 0.00 0.00 61 1014.0
20260506194524 18 97 12.9 17.7 0.00 0.00 0.00 61 1013.9
20260506193020 18 88 9.7 20.9 0.00 0.00 0.00 61 1013.6
20260506191520 18 68 14.5 20.9 0.00 0.00 0.00 61 1013.5
20260506190019 18 93 12.9 19.3 0.00 0.00 0.00 60 1013.5
20260506184519 18 91 14.5 20.9 0.00 0.00 0.00 60 1013.3
20260506183016 18 86 11.3 17.7 0.00 0.00 0.00 60 1013.1
20260506181524 18 102 14.5 22.5 0.00 0.00 0.00 60 1013.0
20260506180016 18 65 11.3 22.5 0.00 0.00 0.00 60 1013.0
20260506174515 18 88 17.7 22.5 0.00 0.00 0.00 60 1013.1
20260506173014 18 95 17.7 20.9 0.00 0.00 0.00 61 1013.0
20260506171522 18 118 16.1 25.7 0.00 0.00 0.00 60 1012.9
20260506170012 18 99 14.5 24.1 0.00 0.00 0.00 60 1012.9
20260506164512 18 85 20.9 30.6 0.00 0.00 0.00 59 1013.0
20260506163010 18 85 20.9 32.2 0.00 0.00 0.00 59 1013.0
20260506161509 18 89 17.7 35.4 0.00 0.00 0.00 60 1013.1
20260506160008 18 83 17.7 33.8 0.00 0.00 0.00 60 1013.0
20260506154508 18 96 20.9 37.0 0.00 0.00 0.00 60 1013.0
20260506153037 18 81 25.7 33.8 0.00 0.00 0.00 59 1012.9
20260506151555 18 97 20.9 30.6 0.00 0.00 0.00 58 1013.1
20260506150035 18 54 20.9 30.6 0.00 0.00 0.00 57 1013.2
20260506144535 18 68 19.3 32.2 0.00 0.00 0.00 56 1013.2
20260506143044 19 56 19.3 27.4 0.00 0.00 0.00 55 1013.2
20260506141534 19 41 19.3 27.4 0.00 0.00 0.00 56 1013.2
20260506140036 18 75 17.7 27.4 0.00 0.00 0.00 56 1013.3
20260506134532 19 73 19.3 27.4 0.00 0.00 0.00 56 1013.4
20260506133031 18 56 20.9 29.0 0.00 0.00 0.00 55 1013.5
20260506131531 19 71 16.1 27.4 0.00 0.00 0.00 56 1013.6
20260506130028 18 73 17.7 29.0 0.00 0.00 0.00 57 1013.6
20260506124527 19 70 22.5 29.0 0.00 0.00 0.00 57 1014.0
20260506123027 19 68 19.3 27.4 0.00 0.00 0.00 58 1014.0
20260506121527 19 65 19.3 25.7 0.00 0.00 0.00 57 1014.0
20260506120024 19 93 19.3 29.0 0.00 0.00 0.00 57 1014.2
20260506114535 19 64 19.3 32.2 0.00 0.00 0.00 58 1014.1
20260506113023 19 57 19.3 30.6 0.00 0.00 0.00 58 1014.2
20260506111522 18 62 22.5 38.6 0.00 0.00 0.00 59 1014.2
20260506110022 18 45 25.7 37.0 0.00 0.00 0.00 59 1014.2
20260506104613 19 29 20.9 38.6 0.00 0.00 0.00 59 1014.3
20260506103053 19 24 22.5 38.6 0.00 0.00 0.00 58 1014.3
20260506101556 19 48 24.1 38.6 0.00 0.00 0.00 58 1014.4
20260506100048 18 32 27.4 37.0 0.00 0.00 0.00 57 1014.3
20260506094555 18 24 25.7 40.2 0.00 0.00 0.00 57 1014.3
20260506093053 19 41 27.4 40.2 0.00 0.00 0.00 56 1014.2
20260506091543 19 62 27.4 38.6 0.00 0.00 0.00 56 1014.0
20260506090043 19 33 22.5 35.4 0.00 0.00 0.00 55 1013.7
20260506084539 18 43 25.7 37.0 0.00 0.00 0.00 55 1013.7
20260506083040 18 29 20.9 32.2 0.00 0.00 0.00 58 1013.7
20260506081536 18 43 17.7 35.4 0.00 0.00 0.00 59 1013.6
20260506073041 18 64 20.9 29.0 0.00 0.00 0.00 58 1013.7
20260506071530 18 48 19.3 29.0 0.00 0.00 0.00 58 1013.8
20260506061554 16 16 8.0 16.1 0.00 0.00 0.00 47 1013.5
20260506044510 16 35 9.7 16.1 0.00 0.00 0.00 50 1012.5
20260506043005 16 32 11.3 16.1 0.00 0.00 0.00 51 1012.4
20260506041606 16 8 8.0 12.9 0.00 0.00 0.00 53 1012.3
20260506040057 16 339 3.2 6.4 0.00 0.00 0.00 56 1012.4
20260506034556 16 354 4.8 8.0 0.00 0.00 0.00 58 1012.5
20260506033100 16 317 3.2 6.4 0.00 0.00 0.00 58 1012.7
20260506031555 16 308 4.8 6.4 0.00 0.00 0.00 58 1012.7
20260506030051 17 359 3.2 4.8 0.00 0.00 0.00 58 1012.7
20260506024550 17 359 3.2 6.4 0.00 0.00 0.00 59 1012.7
20260506023051 17 359 3.2 6.4 0.00 0.00 0.00 60 1012.6
20260506021551 16 359 4.8 8.0 0.00 0.00 0.00 60 1012.8
20260506020045 17 330 4.8 6.4 0.00 0.00 0.00 59 1012.7
20260506014551 17 345 4.8 9.7 0.00 0.00 0.00 58 1012.8